Вернуться в каталог

STARLINK-33781

АктивенСвязьVLEO
NORAD 63826·PAYLOAD·🇺🇸 United States

Запущен May 4, 2025 с Cape Canaveral Space Force Station

Loading…

Ближайшие Пролёты (ближайшие 24 часа)

TLE

СвежийSource: CelesTrak SupGP

Эпоха: Sep 15, 2026, 02:34 UTC

1 63826C 25092Y   26258.10743056 -.00026794  00000+0 -97056-3 0  2589
2 63826  43.0012 183.1188 0001343 271.2679 321.1695 15.27588645    11

Отслеживайте STARLINK-33781 в реальном времени с AllMySat

Download on the App Store